Regional Weather Roundup
Issued by NWS

Home | Current Version | Previous Version | Graphics & Text | Print | Product List | Glossary On
Versions: 1 2 3 4 5 6 7 8 9 10 11 12 13 14 15 16 17 18 19 20 21 22 23 24 25 26 27 28 29 30 31 32 33 34 35 36 37 38 39 40 41 42 43 44 45 46 47 48 49 50
174
ASUS43 KLMK 140910
RWRKY
KENTUCKY REGIONAL WEATHER ROUNDUP
NATIONAL WEATHER SERVICE LOUISVILLE KY
400 AM EST SUN FEB 14 2016

NOTE "FAIR" INDICATES FEW OR NO CLOUDS BELOW 12,000 FEET
WITH NO SIGNIFICANT WEATHER AND/OR OBSTRUCTIONS TO VISIBILITY.

KYZ001>023-026-027-061>063-070>075-141000-
WESTERN AND SOUTH CENTRAL KENTUCKY

CITY           SKY/WX    TMP DP  RH WIND       PRES   REMARKS
PADUCAH        CLOUDY    26   9  48 E5        30.35F WCI  20
HENDERSON      CLOUDY    23   7  50 E6        30.41R WCI  16
OWENSBORO      CLOUDY    23   5  46 E12       30.39F WCI  12
HOPKINSVILLE   CLOUDY    26   8  46 E7        30.36S WCI  18
BOWLING GREEN  CLOUDY    25   8  48 E10       30.38F WCI  15
GLASGOW        CLOUDY    23   9  55 E7        30.39F WCI  14
$$

KYZ024-025-028>034-038-045-046-053-141000-
NORTH CENTRAL KENTUCKY

CITY           SKY/WX    TMP DP  RH WIND       PRES   REMARKS
LOUISVILLE/SDF CLOUDY    20   2  45 E7        30.45F WCI  11
LOUISVILLE/LOU CLOUDY    19   4  51 E7        30.46F WCI  10
FORT KNOX      MOCLDY    19   5  53 E9        30.39F WCI   9
$$

KYZ035>037-039>044-047>052-055>060-089>105-141000-
NORTHEAST KENTUCKY

CITY           SKY/WX    TMP DP  RH WIND       PRES   REMARKS
LEXINGTON      CLOUDY    17   4  56 E7        30.42F WCI   8
COVINGTON      CLOUDY    13   3  64 E9        30.45R WCI   1
FRANKFORT      CLOUDY    17   3  54 E7        30.44S WCI   8
$$

KYZ054-064>069-076>088-106>120-141000-
SOUTHEAST KENTUCKY

CITY           SKY/WX    TMP DP  RH WIND       PRES   REMARKS
JACKSON        CLOUDY    13   0  56 VRB3      30.41R
LONDON         CLOUDY    16   3  56 E3        30.39F
SOMERSET       CLOUDY    18   5  57 E5        30.43F WCI  11
MIDDLESBORO    CLOUDY    15  11  82 CALM      30.41S
MONTICELLO     CLOUDY    20   7  57 VRB3      30.42F
$$





USA.gov is the U.S. government's official web portal to all federal, state and local government web resources and services.